SAS295 EDDH-ESSA

Flight info

Callsign SAS295
Flight time 1h 12m
Altitude 39000
Route LUGEG3C LUGEG P605 MEGAR DCT KUBIS DCT MIKNA N851 PELUP Z226 NILUG
Aircraft A20N/M-SDE2E3FGHIRWXY/LB1

Departure

Time 2026-05-07 10:22
Airport Hamburg Helmut Schmidt Airport (EDDH)

Arrival

Time 2026-05-07 11:35
Airport Stockholm-Arlanda Airport (ESSA)
Time Latitude Longitude Altitude Speed Heading
2026-05-07 10:05 53.62810 10.00250 48 ft 0 kts 63°
2026-05-07 10:12 53.62805 10.00232 47 ft 2 kts 63°
2026-05-07 10:12 53.62798 10.00211 44 ft 2 kts 63°
2026-05-07 10:13 53.62792 10.00188 44 ft 2 kts 63°
2026-05-07 10:13 53.62784 10.00166 44 ft 2 kts 42°
2026-05-07 10:13 53.62772 10.00153 46 ft 2 kts
2026-05-07 10:13 53.62757 10.00154 44 ft 2 kts 333°
2026-05-07 10:14 53.62755 10.00156 44 ft 0 kts 329°
2026-05-07 10:17 53.62758 10.00152 45 ft 2 kts 328°
2026-05-07 10:17 53.62787 10.00124 47 ft 7 kts 331°
2026-05-07 10:17 53.62829 10.00051 45 ft 10 kts 288°
2026-05-07 10:17 53.62790 9.99949 46 ft 13 kts 214°
2026-05-07 10:18 53.62694 9.99851 42 ft 18 kts 211°
2026-05-07 10:18 53.62627 9.99672 46 ft 20 kts 258°
2026-05-07 10:18 53.62601 9.99423 46 ft 23 kts 259°
2026-05-07 10:18 53.62569 9.99136 46 ft 27 kts 259°
2026-05-07 10:19 53.62532 9.98817 46 ft 30 kts 259°
2026-05-07 10:19 53.62499 9.98524 46 ft 26 kts 259°
2026-05-07 10:19 53.62465 9.98243 46 ft 23 kts 257°
2026-05-07 10:19 53.62458 9.98197 45 ft 3 kts 253°
2026-05-07 10:20 53.62445 9.98142 44 ft 7 kts 245°
2026-05-07 10:20 53.62410 9.98051 46 ft 11 kts 233°
2026-05-07 10:20 53.62351 9.97927 46 ft 16 kts 230°
2026-05-07 10:20 53.62269 9.97769 46 ft 20 kts 229°
2026-05-07 10:21 53.62182 9.97566 46 ft 23 kts 258°
2026-05-07 10:21 53.62244 9.97349 40 ft 24 kts 323°
2026-05-07 10:21 53.62303 9.97342 38 ft 0 kts 41°
2026-05-07 10:21 53.62318 9.97366 39 ft 20 kts 45°
2026-05-07 10:22 53.62572 9.97879 41 ft 91 kts 51°
2026-05-07 10:22 53.63094 9.98947 49 ft 142 kts 51°
2026-05-07 10:22 53.63746 10.00201 650 ft 139 kts 48°
2026-05-07 10:22 53.64474 10.01441 1082 ft 155 kts 51°
2026-05-07 10:23 53.65101 10.02853 1841 ft 148 kts 57°
2026-05-07 10:23 53.65652 10.04394 2299 ft 158 kts 57°
2026-05-07 10:23 53.66318 10.05981 2843 ft 173 kts 53°
2026-05-07 10:23 53.67119 10.07620 3278 ft 190 kts 52°
2026-05-07 10:24 53.67996 10.09372 3825 ft 202 kts 52°
2026-05-07 10:24 53.68905 10.11206 4686 ft 205 kts 52°
2026-05-07 10:24 53.69821 10.13088 5438 ft 209 kts 52°
2026-05-07 10:24 53.70742 10.15018 6151 ft 213 kts 52°
2026-05-07 10:25 53.71678 10.17000 6798 ft 220 kts 52°
2026-05-07 10:25 53.72656 10.19137 7096 ft 241 kts 53°
2026-05-07 10:25 53.73710 10.21484 7312 ft 260 kts 53°
2026-05-07 10:25 53.74821 10.23957 7768 ft 267 kts 53°
2026-05-07 10:26 53.75964 10.26489 8738 ft 272 kts 53°
2026-05-07 10:26 53.77111 10.29029 9835 ft 276 kts 52°
2026-05-07 10:26 53.78283 10.31624 10886 ft 278 kts 52°
2026-05-07 10:26 53.79460 10.34225 11911 ft 281 kts 52°
2026-05-07 10:27 53.80691 10.36948 12425 ft 304 kts 52°
2026-05-07 10:27 53.82028 10.39908 12803 ft 328 kts 52°
2026-05-07 10:27 53.83461 10.43089 13208 ft 349 kts 52°
2026-05-07 10:27 53.84942 10.46382 14043 ft 355 kts 52°
2026-05-07 10:28 53.86449 10.49735 14820 ft 361 kts 53°
2026-05-07 10:28 53.87981 10.53147 15572 ft 367 kts 53°
2026-05-07 10:28 53.89522 10.56583 16323 ft 374 kts 53°
2026-05-07 10:28 53.91111 10.60132 17078 ft 380 kts 53°
2026-05-07 10:29 53.92722 10.63736 17844 ft 386 kts 53°
2026-05-07 10:29 53.94397 10.67357 18591 ft 391 kts 49°
2026-05-07 10:29 53.96263 10.70746 19287 ft 394 kts 47°
2026-05-07 10:30 54.00040 10.77594 20638 ft 403 kts 47°
2026-05-07 10:30 54.01963 10.81099 21323 ft 407 kts 47°
2026-05-07 10:30 54.03910 10.84653 21983 ft 411 kts 47°
2026-05-07 10:30 54.05870 10.88235 22649 ft 416 kts 47°
2026-05-07 10:31 54.07846 10.91852 23288 ft 420 kts 47°
2026-05-07 10:31 54.09848 10.95519 23867 ft 424 kts 47°
2026-05-07 10:31 54.11863 10.99217 24453 ft 427 kts 47°
2026-05-07 10:31 54.13884 11.02948 25018 ft 429 kts 47°
2026-05-07 10:32 54.15890 11.06667 25544 ft 433 kts 47°
2026-05-07 10:32 54.17932 11.10462 26087 ft 435 kts 47°
2026-05-07 10:32 54.19989 11.14289 26603 ft 438 kts 47°
2026-05-07 10:32 54.22034 11.18101 27096 ft 441 kts 47°
2026-05-07 10:33 54.24118 11.21995 27595 ft 444 kts 47°
2026-05-07 10:33 54.26209 11.25913 28066 ft 447 kts 47°
2026-05-07 10:33 54.28314 11.29862 28506 ft 450 kts 47°
2026-05-07 10:33 54.30430 11.33838 28959 ft 453 kts 48°
2026-05-07 10:34 54.32554 11.37837 29393 ft 456 kts 48°
2026-05-07 10:34 54.34698 11.41877 29808 ft 459 kts 48°
2026-05-07 10:34 54.36847 11.45934 30229 ft 461 kts 48°
2026-05-07 10:34 54.39011 11.50020 30599 ft 463 kts 48°
2026-05-07 10:35 54.41193 11.54137 30964 ft 466 kts 48°
2026-05-07 10:35 54.43353 11.58219 31353 ft 467 kts 48°
2026-05-07 10:35 54.45586 11.62285 31816 ft 467 kts 44°
2026-05-07 10:35 54.48057 11.65907 32296 ft 466 kts 37°
2026-05-07 10:36 54.50750 11.69030 32777 ft 466 kts 32°
2026-05-07 10:36 54.53505 11.71988 33238 ft 465 kts 32°
2026-05-07 10:36 54.56236 11.74960 33696 ft 464 kts 32°
2026-05-07 10:36 54.58962 11.77934 34126 ft 463 kts 32°
2026-05-07 10:37 54.61692 11.80916 34461 ft 463 kts 32°
2026-05-07 10:37 54.64426 11.83902 34750 ft 465 kts 32°
2026-05-07 10:37 54.67133 11.86859 35031 ft 466 kts 32°
2026-05-07 10:37 54.69873 11.89856 35308 ft 467 kts 32°
2026-05-07 10:38 54.72624 11.92869 35588 ft 468 kts 32°
2026-05-07 10:38 54.75382 11.95894 35862 ft 469 kts 32°
2026-05-07 10:38 54.78143 11.98928 36139 ft 470 kts 32°
2026-05-07 10:38 54.80908 12.01972 36407 ft 471 kts 32°
2026-05-07 10:39 54.83679 12.05026 36671 ft 472 kts 32°
2026-05-07 10:39 54.86451 12.08087 36918 ft 473 kts 32°
2026-05-07 10:39 54.89226 12.11158 37182 ft 473 kts 32°
2026-05-07 10:39 54.92007 12.14239 37425 ft 474 kts 32°
2026-05-07 10:40 54.94793 12.17332 37670 ft 475 kts 32°
2026-05-07 10:40 54.97548 12.20396 37903 ft 476 kts 32°
2026-05-07 10:40 55.00341 12.23507 38118 ft 477 kts 32°
2026-05-07 10:40 55.03139 12.26629 38362 ft 477 kts 32°
2026-05-07 10:41 55.05948 12.29768 38581 ft 478 kts 32°
2026-05-07 10:41 55.08753 12.32908 38784 ft 479 kts 32°
2026-05-07 10:41 55.11527 12.36019 38948 ft 479 kts 32°
2026-05-07 10:41 55.14333 12.39170 39068 ft 479 kts 32°
2026-05-07 10:42 55.19931 12.45472 39096 ft 478 kts 32°
2026-05-07 10:42 55.25506 12.51844 39097 ft 478 kts 33°
2026-05-07 10:43 55.30987 12.58492 39098 ft 479 kts 36°
2026-05-07 10:43 55.36263 12.65660 39101 ft 479 kts 37°
2026-05-07 10:44 55.41511 12.72798 39102 ft 480 kts 37°
2026-05-07 10:44 55.46821 12.79950 39102 ft 480 kts 37°
2026-05-07 10:45 55.52137 12.87113 39101 ft 481 kts 37°
2026-05-07 10:45 55.57457 12.94317 39103 ft 481 kts 37°
2026-05-07 10:46 55.62771 13.01541 39100 ft 482 kts 37°
2026-05-07 10:46 55.68093 13.08803 39085 ft 483 kts 37°
2026-05-07 10:47 55.73416 13.16091 39084 ft 483 kts 37°
2026-05-07 10:47 55.78735 13.23399 39081 ft 484 kts 37°
2026-05-07 10:48 55.84029 13.30699 39084 ft 484 kts 37°
2026-05-07 10:48 55.89360 13.38076 39080 ft 485 kts 37°
2026-05-07 10:49 55.94685 13.45473 39080 ft 485 kts 37°
2026-05-07 10:49 56.00018 13.52906 39080 ft 485 kts 37°
2026-05-07 10:50 56.05303 13.60298 39077 ft 485 kts 37°
2026-05-07 10:50 56.10642 13.67793 39075 ft 486 kts 37°
2026-05-07 10:51 56.15929 13.75243 39068 ft 486 kts 37°
2026-05-07 10:51 56.21249 13.82766 39070 ft 486 kts 37°
2026-05-07 10:52 56.25671 13.89039 39064 ft 486 kts 37°
2026-05-07 10:52 56.30990 13.96610 39063 ft 486 kts 37°
2026-05-07 10:53 56.36269 14.04152 39057 ft 487 kts 37°
2026-05-07 10:53 56.41574 14.11759 39058 ft 487 kts 37°
2026-05-07 10:54 56.46876 14.19390 39052 ft 487 kts 37°
2026-05-07 10:54 56.52181 14.27053 39049 ft 488 kts 37°
2026-05-07 10:55 56.57486 14.34744 39051 ft 488 kts 37°
2026-05-07 10:55 56.62753 14.42408 39052 ft 488 kts 37°
2026-05-07 10:56 56.68058 14.50156 39048 ft 489 kts 37°
2026-05-07 10:56 56.73362 14.57933 39050 ft 489 kts 37°
2026-05-07 10:57 56.78669 14.65742 39047 ft 490 kts 38°
2026-05-07 10:57 56.83972 14.73573 39050 ft 490 kts 38°
2026-05-07 10:58 56.89273 14.81433 39051 ft 491 kts 38°
2026-05-07 10:58 56.94543 14.89276 39051 ft 491 kts 38°
2026-05-07 10:59 56.99853 14.97209 39049 ft 492 kts 38°
2026-05-07 10:59 57.05157 15.05163 39050 ft 492 kts 38°
2026-05-07 11:00 57.10446 15.13124 39043 ft 493 kts 38°
2026-05-07 11:00 57.15764 15.21159 39048 ft 493 kts 38°
2026-05-07 11:01 57.21040 15.29161 39040 ft 494 kts 38°
2026-05-07 11:01 57.26340 15.37232 39042 ft 494 kts 38°
2026-05-07 11:02 57.31643 15.45339 39038 ft 494 kts 38°
2026-05-07 11:02 57.36948 15.53478 39043 ft 495 kts 38°
2026-05-07 11:03 57.42253 15.61650 39038 ft 495 kts 38°
2026-05-07 11:03 57.47516 15.69789 39043 ft 495 kts 38°
2026-05-07 11:04 57.52810 15.78009 39031 ft 496 kts 38°
2026-05-07 11:04 57.55461 15.82136 38852 ft 496 kts 38°
2026-05-07 11:04 57.58110 15.86269 38603 ft 495 kts 38°
2026-05-07 11:05 57.60754 15.90401 38292 ft 495 kts 38°
2026-05-07 11:05 57.63402 15.94547 37802 ft 497 kts 38°
2026-05-07 11:05 57.66058 15.98713 37148 ft 499 kts 38°
2026-05-07 11:05 57.68694 16.02856 36562 ft 500 kts 39°
2026-05-07 11:06 57.71358 16.07054 36042 ft 501 kts 39°
2026-05-07 11:06 57.74026 16.11265 35542 ft 503 kts 39°
2026-05-07 11:06 57.76716 16.15521 35052 ft 506 kts 39°
2026-05-07 11:06 57.79412 16.19794 34575 ft 508 kts 39°
2026-05-07 11:07 57.82113 16.24084 34101 ft 510 kts 39°
2026-05-07 11:07 57.84798 16.28355 33565 ft 511 kts 39°
2026-05-07 11:07 57.87514 16.32686 33025 ft 513 kts 39°
2026-05-07 11:07 57.90230 16.37027 32492 ft 514 kts 39°
2026-05-07 11:08 57.92960 16.41399 31958 ft 515 kts 39°
2026-05-07 11:08 57.95689 16.45779 31469 ft 515 kts 39°
2026-05-07 11:08 57.98418 16.50167 30952 ft 517 kts 39°
2026-05-07 11:08 58.01126 16.54530 30469 ft 517 kts 39°
2026-05-07 11:09 58.03858 16.58942 29950 ft 514 kts 39°
2026-05-07 11:09 58.06562 16.63321 29382 ft 508 kts 39°
2026-05-07 11:09 58.09223 16.67638 28828 ft 501 kts 39°
2026-05-07 11:09 58.11857 16.71919 28345 ft 496 kts 39°
2026-05-07 11:10 58.14477 16.76185 27885 ft 494 kts 39°
2026-05-07 11:10 58.17051 16.80385 27449 ft 490 kts 38°
2026-05-07 11:10 58.19622 16.84589 26998 ft 487 kts 38°
2026-05-07 11:10 58.22181 16.88784 26564 ft 483 kts 38°
2026-05-07 11:11 58.24716 16.92945 26133 ft 479 kts 38°
2026-05-07 11:11 58.27201 16.97031 25718 ft 476 kts 38°
2026-05-07 11:11 58.29689 17.01132 25307 ft 472 kts 38°
2026-05-07 11:11 58.32161 17.05214 24894 ft 469 kts 38°
2026-05-07 11:12 58.34608 17.09261 24495 ft 465 kts 38°
2026-05-07 11:12 58.37057 17.13320 24094 ft 462 kts 37°
2026-05-07 11:12 58.39472 17.17330 23695 ft 458 kts 37°
2026-05-07 11:12 58.41868 17.21316 23234 ft 455 kts 37°
2026-05-07 11:13 58.44241 17.25269 22762 ft 450 kts 37°
2026-05-07 11:13 58.46595 17.29149 22295 ft 443 kts 34°
2026-05-07 11:13 58.49159 17.32105 21849 ft 430 kts 18°
2026-05-07 11:13 58.51900 17.34358 21412 ft 426 kts 18°
2026-05-07 11:14 58.54616 17.36585 20973 ft 422 kts 18°
2026-05-07 11:14 58.57298 17.38789 20584 ft 417 kts 18°
2026-05-07 11:14 58.59953 17.40976 20208 ft 414 kts 18°
2026-05-07 11:14 58.62595 17.43157 19836 ft 412 kts 18°
2026-05-07 11:15 58.65215 17.45324 19468 ft 408 kts 18°
2026-05-07 11:15 58.67805 17.47472 19162 ft 404 kts 18°
2026-05-07 11:15 58.70389 17.49617 18876 ft 402 kts 18°
2026-05-07 11:15 58.72957 17.51753 18589 ft 400 kts 18°
2026-05-07 11:16 58.75506 17.53876 18292 ft 398 kts 19°
2026-05-07 11:16 58.78038 17.55991 17965 ft 395 kts 19°
2026-05-07 11:16 58.80524 17.58071 17641 ft 392 kts 19°
2026-05-07 11:16 58.83019 17.60161 17322 ft 389 kts 19°
2026-05-07 11:17 58.85497 17.62241 16999 ft 387 kts 19°
2026-05-07 11:17 58.87956 17.64308 16662 ft 384 kts 19°
2026-05-07 11:17 58.90404 17.66369 16347 ft 381 kts 19°
2026-05-07 11:17 58.92828 17.68412 16033 ft 378 kts 19°
2026-05-07 11:18 58.95244 17.70451 15691 ft 376 kts 19°
2026-05-07 11:18 58.97632 17.72471 15314 ft 372 kts 19°
2026-05-07 11:18 58.99995 17.74473 14964 ft 369 kts 19°
2026-05-07 11:18 59.02342 17.76463 14619 ft 367 kts 19°
2026-05-07 11:19 59.04643 17.78417 14280 ft 364 kts 19°
2026-05-07 11:19 59.06961 17.80389 13943 ft 361 kts 19°
2026-05-07 11:19 59.09251 17.82339 13568 ft 358 kts 19°
2026-05-07 11:19 59.11528 17.84281 13183 ft 356 kts 19°
2026-05-07 11:20 59.13767 17.86193 12809 ft 353 kts 19°
2026-05-07 11:20 59.16019 17.88118 12438 ft 351 kts 20°
2026-05-07 11:20 59.18248 17.90028 12073 ft 349 kts 20°
2026-05-07 11:20 59.20464 17.91930 11709 ft 346 kts 20°
2026-05-07 11:21 59.22660 17.93815 11352 ft 344 kts 20°
2026-05-07 11:21 59.24844 17.95695 10994 ft 341 kts 20°
2026-05-07 11:21 59.26997 17.97552 10642 ft 335 kts 20°
2026-05-07 11:21 59.29113 17.99378 10298 ft 329 kts 20°
2026-05-07 11:22 59.31169 18.01152 9950 ft 323 kts 21°
2026-05-07 11:22 59.33146 18.02859 9579 ft 322 kts 21°
2026-05-07 11:22 59.35192 18.04634 9208 ft 320 kts 21°
2026-05-07 11:22 59.37212 18.06387 8819 ft 315 kts 21°
2026-05-07 11:23 59.39196 18.08108 8436 ft 309 kts 21°
2026-05-07 11:23 59.41149 18.09806 8134 ft 303 kts 21°
2026-05-07 11:23 59.43085 18.11331 7759 ft 296 kts 13°
2026-05-07 11:23 59.45107 18.12105 7415 ft 298 kts
2026-05-07 11:24 59.47145 18.12780 7046 ft 294 kts
2026-05-07 11:24 59.49163 18.13440 6696 ft 292 kts
2026-05-07 11:24 59.51142 18.14079 6297 ft 284 kts
2026-05-07 11:24 59.53069 18.14697 5919 ft 275 kts
2026-05-07 11:25 59.54917 18.15287 5559 ft 269 kts
2026-05-07 11:25 59.56749 18.15867 5189 ft 264 kts
2026-05-07 11:25 59.58550 18.16437 5040 ft 266 kts
2026-05-07 11:25 59.60376 18.17008 5009 ft 264 kts
2026-05-07 11:26 59.62190 18.17577 4997 ft 264 kts
2026-05-07 11:26 59.64007 18.18151 4993 ft 264 kts
2026-05-07 11:26 59.65824 18.18726 5004 ft 265 kts
2026-05-07 11:26 59.67646 18.19298 4846 ft 266 kts
2026-05-07 11:27 59.69478 18.19877 4472 ft 266 kts
2026-05-07 11:27 59.71294 18.20444 4066 ft 261 kts
2026-05-07 11:27 59.73043 18.20987 3681 ft 254 kts
2026-05-07 11:27 59.74782 18.21519 3299 ft 251 kts
2026-05-07 11:28 59.76481 18.21428 2892 ft 242 kts 342°
2026-05-07 11:28 59.78054 18.20293 2580 ft 238 kts 337°
2026-05-07 11:28 59.79548 18.19143 2511 ft 223 kts 338°
2026-05-07 11:28 59.80873 18.17812 2512 ft 206 kts 316°
2026-05-07 11:29 59.81571 18.15487 2529 ft 193 kts 281°
2026-05-07 11:29 59.81788 18.12984 2514 ft 178 kts 277°
2026-05-07 11:29 59.81976 18.10533 2512 ft 180 kts 277°
2026-05-07 11:29 59.82161 18.08084 2538 ft 181 kts 277°
2026-05-07 11:30 59.82332 18.05627 2516 ft 179 kts 271°
2026-05-07 11:30 59.81933 18.03394 2526 ft 177 kts 230°
2026-05-07 11:30 59.80910 18.01984 2506 ft 179 kts 203°
2026-05-07 11:30 59.79717 18.01296 2535 ft 181 kts 193°
2026-05-07 11:31 59.78469 18.00841 2512 ft 179 kts 192°
2026-05-07 11:31 59.77236 18.00386 2529 ft 182 kts 191°
2026-05-07 11:31 59.75996 17.99937 2465 ft 180 kts 192°
2026-05-07 11:31 59.74780 17.99490 2221 ft 173 kts 191°
2026-05-07 11:32 59.72581 17.98689 1769 ft 161 kts 191°
2026-05-07 11:32 59.71511 17.98300 1540 ft 150 kts 192°
2026-05-07 11:32 59.70526 17.97940 1341 ft 139 kts 192°
2026-05-07 11:33 59.69602 17.97604 1161 ft 130 kts 192°
2026-05-07 11:33 59.68739 17.97289 958 ft 125 kts 191°
2026-05-07 11:33 59.67894 17.96981 781 ft 123 kts 191°
2026-05-07 11:33 59.67045 17.96675 599 ft 124 kts 191°
2026-05-07 11:34 59.66213 17.96363 421 ft 122 kts 191°
2026-05-07 11:34 59.65375 17.96079 270 ft 123 kts 189°
2026-05-07 11:34 59.64555 17.95768 126 ft 117 kts 188°
2026-05-07 11:34 59.63837 17.95516 114 ft 89 kts 189°
2026-05-07 11:35 59.63405 17.95284 122 ft 53 kts 212°
2026-05-07 11:35 59.63247 17.95003 121 ft 19 kts 260°
2026-05-07 11:35 59.63248 17.94986 122 ft 0 kts 285°
2026-05-07 11:35 59.63248 17.94984 122 ft 1 kts 285°
2026-05-07 11:36 59.63269 17.94926 122 ft 8 kts 327°
2026-05-07 11:36 59.63342 17.94917 120 ft 14 kts
2026-05-07 11:36 59.63460 17.94963 116 ft 20 kts 12°
2026-05-07 11:36 59.63618 17.95022 114 ft 26 kts 10°
2026-05-07 11:37 59.63813 17.95093 109 ft 30 kts 10°
2026-05-07 11:37 59.64028 17.95170 108 ft 31 kts
2026-05-07 11:37 59.64209 17.95237 106 ft 27 kts 12°
2026-05-07 11:37 59.64405 17.95307 105 ft 30 kts
2026-05-07 11:38 59.64619 17.95387 104 ft 32 kts 11°
2026-05-07 11:38 59.64838 17.95465 107 ft 21 kts
2026-05-07 11:38 59.64972 17.95510 111 ft 20 kts
2026-05-07 11:38 59.65111 17.95481 116 ft 20 kts 345°
2026-05-07 11:39 59.65247 17.95404 121 ft 20 kts 345°
2026-05-07 11:39 59.65386 17.95331 127 ft 21 kts 345°
2026-05-07 11:39 59.65486 17.95279 126 ft 23 kts 345°
2026-05-07 11:39 59.65647 17.95192 125 ft 15 kts 344°
2026-05-07 11:40 59.65736 17.95106 124 ft 16 kts 306°
2026-05-07 11:40 59.65730 17.94868 120 ft 20 kts 255°
2026-05-07 11:40 59.65693 17.94589 125 ft 22 kts 256°
2026-05-07 11:40 59.65655 17.94284 123 ft 24 kts 255°
2026-05-07 11:41 59.65611 17.93934 115 ft 29 kts 257°
2026-05-07 11:41 59.65560 17.93529 111 ft 32 kts 255°
2026-05-07 11:41 59.65507 17.93115 111 ft 20 kts 252°
2026-05-07 11:41 59.65464 17.92869 111 ft 20 kts 249°
2026-05-07 11:42 59.65434 17.92734 110 ft 8 kts 242°
2026-05-07 11:42 59.65383 17.92693 112 ft 7 kts 163°
2026-05-07 11:42 59.65377 17.92759 111 ft 7 kts 82°
2026-05-07 11:42 59.65390 17.92869 109 ft 6 kts 86°
2026-05-07 11:43 59.65376 17.92929 111 ft 4 kts 130°
2026-05-07 11:43 59.65365 17.92951 110 ft 0 kts 134°